[[{"header":{"parameterUnit":"m.s-1","parameterCategory":2,"la1":30.2991,"la2":30.254,"lo1":-89.0895,"lo2":-89.0444,"dy":0.0017,"dx":0.0017,"nx":28,"ny":28,"refTime":"2026-02-27T03:00:00:Z","depth":"0","parameterNumber":2,"parameterNumberName":"U-component_of_CURRENTS"},"data":[0,0,0,0,0,0,0,0,0,0,0,0,0,0,0,0,0,0,0,0,0,0,0,0,0,0,0,0,0,0,0,0,0,0,0,0,0,0,0,0,0,0,0,0,0,0,0,0,0,0,0,0,0,0,0,0,0,0,-0.2924,-0.2923,0,-0.2802,-0.2801,-0.2799,-0.2787,-0.2789,-0.279,-0.2792,-0.2678,-0.2673,-0.2669,0,0,0,0,0,0,0,0,0,0,0,0,0,-0.3042,-0.3041,-0.2924,-0.2923,-0.2922,-0.2803,-0.28,-0.2798,-0.2787,-0.2789,-0.2791,-0.2793,-0.2679,-0.2674,-0.2668,0,0,0,0,0,0,0,0,0,0,0,0,0,-0.2959,-0.304,-0.2925,-0.2905,-0.2902,-0.2803,-0.28,-0.2798,-0.2786,-0.2789,-0.2791,-0.2794,-0.2681,-0.2674,-0.2667,-0.2575,0,0,-0.2646,-0.2643,0,0,0,0,0,0,0,0,-0.2964,-0.2954,-0.2909,-0.2906,-0.2903,-0.2816,-0.28,-0.2725,-0.2786,-0.2826,-0.2792,-0.2795,-0.2725,-0.2715,-0.2681,-0.257,-0.2565,-0.2646,-0.2642,-0.2639,-0.2637,0,0,0,0,0,0,0,-0.297,-0.2959,-0.2872,-0.2908,-0.2904,-0.2867,-0.2858,-0.2785,-0.276,-0.2823,-0.2823,-0.2815,-0.2724,-0.2687,-0.2678,-0.2563,-0.2646,-0.264,-0.2636,-0.2633,-0.2477,-0.2477,0,0,0,0,0,0,-0.2996,-0.2965,-0.2876,-0.2869,-0.2945,-0.2863,-0.2853,-0.2838,-0.2761,-0.2752,-0.2813,-0.2815,-0.2698,-0.2686,-0.2674,-0.266,-0.2639,-0.2632,-0.2628,-0.2477,-0.2477,-0.2477,0,0,0,0,0,0,-0.2998,-0.2988,-0.2881,-0.2918,-0.2902,-0.286,-0.2842,-0.2834,-0.2809,-0.2754,-0.2746,-0.2797,-0.2699,-0.2684,-0.263,-0.2652,-0.2629,-0.2623,-0.2477,-0.2477,-0.2477,-0.2567,0,0,0,0,0,0,-0.3002,-0.299,-0.298,-0.2919,-0.2901,-0.2841,-0.284,-0.283,-0.2802,-0.2803,-0.2737,-0.2729,-0.27,-0.264,-0.2623,-0.2642,-0.2618,-0.2477,-0.2477,-0.2477,-0.2564,-0.257,-0.2575,0,0,0,0,0,-0.3006,-0.2989,-0.298,-0.297,-0.2892,-0.2842,-0.2828,-0.2803,-0.2799,-0.2788,-0.2749,-0.2731,-0.263,-0.2634,-0.2613,-0.2631,-0.2477,-0.2477,-0.2477,-0.2562,-0.2569,-0.2575,0,0,0,0,0,0,-0.3035,-0.2984,-0.2974,-0.2942,-0.2906,-0.2842,-0.282,-0.2799,-0.2753,-0.2755,-0.2708,-0.2696,-0.2666,-0.2621,-0.2627,-0.2587,-0.2558,-0.2554,-0.2629,-0.2635,-0.2641,-0.2671,-0.2612,0,0,0,0,0,-0.3036,-0.3006,-0.2963,-0.2934,-0.2918,-0.2865,-0.2838,-0.2823,-0.2777,-0.2759,-0.2717,-0.2674,-0.2642,-0.2619,-0.2576,-0.2528,-0.2493,-0.2532,-0.2538,-0.2543,-0.2553,-0.2539,-0.2546,-0.2477,-0.2477,-0.2477,0,0,-0.3035,-0.3005,-0.2986,-0.2937,-0.29,-0.2886,-0.2854,-0.2818,-0.2815,-0.275,-0.2722,-0.2683,-0.2633,-0.2606,-0.2589,-0.2575,-0.2535,-0.2543,-0.2548,-0.2556,-0.254,-0.2547,-0.2553,-0.2477,-0.2477,-0.2477,0,0,-0.3028,-0.2995,-0.2977,-0.2955,-0.2915,-0.2888,-0.2884,-0.2828,-0.2815,-0.2771,-0.2748,-0.2724,-0.2641,-0.2635,-0.2616,-0.2615,-0.2567,-0.2599,-0.2648,-0.2635,-0.2641,-0.2646,-0.2579,-0.2577,-0.2602,-0.2602,-0.2602,0,-0.3032,-0.3011,-0.2964,-0.2956,-0.2948,-0.2899,-0.2899,-0.2868,-0.2807,-0.2796,-0.2781,-0.2701,-0.2666,-0.2656,-0.2674,-0.2633,-0.2594,-0.2632,-0.2645,-0.265,-0.2654,-0.2583,-0.2581,-0.2606,-0.2606,-0.2605,-0.2605,0,-0.3021,-0.3015,-0.3002,-0.2984,-0.2967,-0.2952,-0.2926,-0.2906,-0.288,-0.2851,-0.2824,-0.2772,-0.2734,-0.2726,-0.2699,-0.2713,-0.2663,-0.2658,-0.2637,-0.2667,-0.2589,-0.2585,-0.2612,-0.2611,-0.2609,-0.2608,0,0,-0.2992,-0.2998,-0.2995,-0.3006,-0.2987,-0.2967,-0.2973,-0.2955,-0.295,-0.2904,-0.2899,-0.2863,-0.2833,-0.2811,-0.2778,-0.2772,-0.2762,-0.2734,-0.2731,-0.2681,-0.269,-0.2539,-0.2518,-0.2764,-0.2764,-0.2765,-0.2614,0,-0.2999,-0.302,-0.3014,-0.3028,-0.3035,-0.3018,-0.3022,-0.3003,-0.2976,-0.2954,-0.2921,-0.2888,-0.2866,-0.2845,-0.2845,-0.2781,-0.276,-0.2801,-0.2656,-0.265,-0.2526,-0.2513,-0.2429,-0.2278,-0.2609,-0.2608,-0.2608,0,-0.2988,-0.3006,-0.3042,-0.3062,-0.3061,-0.3062,-0.306,-0.3055,-0.303,-0.3008,-0.2988,-0.2945,-0.2925,-0.2904,-0.2825,-0.2849,-0.2784,-0.2733,-0.2726,-0.2556,-0.2492,-0.2306,-0.2257,-0.2258,-0.26,-0.2601,-0.2601,0,-0.2992,-0.3017,-0.3055,-0.3062,-0.3079,-0.3085,-0.3081,-0.3066,-0.3003,-0.3035,-0.2968,-0.2985,-0.2915,-0.2894,-0.2768,-0.2807,-0.2652,-0.269,-0.2485,-0.2471,-0.2356,-0.2331,-0.2305,-0.2644,-0.2644,-0.2645,-0.2645,0,-0.3003,-0.3016,-0.3058,-0.3073,-0.3028,-0.3093,-0.3025,-0.3035,-0.3009,-0.2917,-0.2977,-0.2882,-0.2908,-0.2803,-0.2764,-0.2568,-0.2637,-0.248,-0.2429,-0.2376,-0.2356,-0.2314,-0.2349,-0.2639,-0.264,-0.2641,-0.2642,0,-0.2965,-0.303,-0.301,-0.304,-0.3018,-0.2974,-0.2871,-0.2822,-0.2863,-0.2749,-0.2743,-0.2745,-0.2649,-0.2605,-0.2534,-0.248,-0.2318,-0.2287,-0.2189,-0.213,-0.1973,-0.2016,-0.1899,-0.1841,-0.2073,-0.2068,-0.2064,0,-0.2943,-0.2956,-0.2904,-0.2823,-0.2809,-0.2739,-0.2657,-0.2694,-0.2641,-0.2622,-0.2557,-0.2481,-0.2373,-0.2197,-0.2147,-0.2032,-0.2077,-0.1878,-0.1959,-0.1933,-0.1946,-0.1992,-0.1959,-0.1828,-0.1823,-0.1818,-0.1815,0,-0.2824,-0.2806,-0.2749,-0.2599,-0.25,-0.239,-0.233,-0.226,-0.233,-0.2254,-0.2185,-0.2127,-0.2015,-0.1889,-0.1772,-0.1711,-0.185,-0.1779,-0.1805,-0.1786,-0.1785,-0.1713,-0.1931,-0.1775,-0.1779,-0.1782,-0.1784,-0.1786,-0.2637,-0.2533,-0.2449,-0.2292,-0.2177,-0.2091,-0.1966,-0.1952,-0.1846,-0.176,-0.183,-0.1678,-0.1719,-0.1556,-0.1485,-0.1402,-0.1496,-0.141,-0.1466,-0.1518,-0.1462,-0.155,-0.1308,-0.1309,-0.131,-0.1311,-0.1312,0,-0.239,-0.2311,-0.2144,-0.197,-0.1814,-0.185,-0.1755,-0.1649,-0.1511,-0.1415,-0.1321,-0.127,-0.1205,-0.1238,-0.1227,-0.1158,-0.1179,-0.1142,-0.1252,-0.1236,-0.1348,-0.1339,-0.1028,-0.1028,-0.1028,-0.1028,-0.1028,-0.1028,-0.2232,-0.2039,-0.1981,-0.1675,-0.1571,-0.1372,-0.1311,-0.1192,-0.1086,-0.0869,-0.0763,-0.0715,-0.0933,-0.1186,-0.1163,-0.1094,-0.1117,-0.1045,-0.1084,-0.1248,-0.1281,-0.1313,-0.1314,-0.1003,-0.1003,-0.0943,-0.0942,-0.0942]},{"header":{"parameterUnit":"m.s-1","parameterCategory":2,"la1":30.2991,"la2":30.254,"lo1":-89.0895,"lo2":-89.0444,"dy":0.0017,"dx":0.0017,"nx":28,"ny":28,"refTime":"2026-02-27T03:00:00:Z","depth":"0","parameterNumber":3,"parameterNumberName":"V-component_of_CURRENTS"},"data":[0,0,0,0,0,0,0,0,0,0,0,0,0,0,0,0,0,0,0,0,0,0,0,0,0,0,0,0,0,0,0,0,0,0,0,0,0,0,0,0,0,0,0,0,0,0,0,0,0,0,0,0,0,0,0,0,0,0,-0.0242,-0.0241,0,-0.0144,-0.0143,-0.0142,-0.0108,-0.0108,-0.0108,-0.0109,-0.0022,-0.002,-0.0018,0,0,0,0,0,0,0,0,0,0,0,0,0,-0.0453,-0.0449,-0.0242,-0.024,-0.0239,-0.0144,-0.0143,-0.0142,-0.0108,-0.0108,-0.0108,-0.0109,-0.0023,-0.002,-0.0017,0,0,0,0,0,0,0,0,0,0,0,0,0,-0.0361,-0.0448,-0.0242,-0.0209,-0.0205,-0.0145,-0.0143,-0.0142,-0.0108,-0.0108,-0.0109,-0.0109,-0.0024,-0.0021,-0.0017,0.0011,0,0,-0.0006,-0.0004,0,0,0,0,0,0,0,0,-0.0366,-0.0353,-0.0215,-0.0211,-0.0207,-0.0137,-0.0186,-0.009,-0.0108,-0.0147,-0.0109,-0.0109,-0.006,-0.0054,-0.0037,0.0015,0.0019,-0.0005,-0.0003,-0.0002,-0.0,0,0,0,0,0,0,0,-0.0372,-0.0357,-0.0205,-0.0214,-0.0208,-0.0218,-0.0205,-0.0168,-0.0105,-0.0144,-0.014,-0.0126,-0.0058,-0.0041,-0.0035,0.002,-0.0005,-0.0002,0.0,0.0002,0.0055,0.0055,0,0,0,0,0,0,-0.0376,-0.0363,-0.0208,-0.0202,-0.0286,-0.0213,-0.0199,-0.0161,-0.0105,-0.0096,-0.0126,-0.0125,-0.0047,-0.0039,-0.0032,-0.0033,-0.0002,0.0002,0.0004,0.0056,0.0055,0.0054,0,0,0,0,0,0,-0.0381,-0.0362,-0.0212,-0.0281,-0.0262,-0.0209,-0.0167,-0.0158,-0.0141,-0.0091,-0.0083,-0.0117,-0.0047,-0.0037,-0.0011,-0.0028,0.0004,0.0007,0.0057,0.0056,0.0055,-0.0012,0,0,0,0,0,0,-0.0387,-0.0364,-0.0341,-0.028,-0.0258,-0.0187,-0.0166,-0.0156,-0.0131,-0.0128,-0.008,-0.0073,-0.0047,-0.0017,-0.0007,-0.0023,0.001,0.0058,0.0057,0.0055,-0.0009,-0.0015,-0.0021,0,0,0,0,0,-0.0394,-0.0358,-0.034,-0.0322,-0.0226,-0.0187,-0.0178,-0.0144,-0.013,-0.0128,-0.0098,-0.0074,-0.002,-0.0014,-0.0003,-0.0018,0.0059,0.0057,0.0055,-0.0006,-0.0014,-0.0021,0,0,0,0,0,0,-0.0436,-0.0349,-0.0328,-0.0267,-0.0237,-0.0181,-0.0168,-0.0145,-0.0117,-0.0116,-0.0073,-0.0063,-0.0052,-0.0023,-0.0017,-0.0008,0.0019,0.002,-0.0031,-0.0038,-0.0044,-0.0064,0.0013,0,0,0,0,0,-0.0434,-0.0385,-0.0323,-0.0279,-0.0264,-0.0218,-0.0197,-0.0177,-0.0141,-0.0129,-0.0096,-0.0068,-0.0049,-0.0034,-0.0011,0.0006,0.0046,-0.0001,-0.0007,-0.0012,-0.0022,0.0005,0.0001,0.0048,0.0049,0.0049,0,0,-0.0436,-0.0384,-0.0356,-0.0286,-0.0258,-0.0254,-0.0207,-0.0181,-0.0182,-0.0124,-0.0115,-0.0084,-0.005,-0.0043,-0.0035,-0.0019,0.0004,-0.0014,-0.0019,-0.0026,0.0003,-0.0002,-0.0006,0.0047,0.0048,0.0048,0,0,-0.045,-0.0376,-0.0363,-0.0341,-0.0301,-0.0273,-0.0269,-0.0221,-0.0204,-0.0187,-0.0156,-0.0136,-0.0096,-0.0081,-0.0067,-0.009,-0.0031,-0.0083,-0.0124,-0.0098,-0.0102,-0.0105,-0.0023,-0.0018,-0.0084,-0.0084,-0.0084,0,-0.0466,-0.0429,-0.0359,-0.036,-0.0346,-0.0289,-0.03,-0.0275,-0.0229,-0.0215,-0.0199,-0.0151,-0.012,-0.0114,-0.0128,-0.0104,-0.006,-0.0099,-0.0106,-0.0109,-0.0111,-0.0026,-0.0019,-0.0087,-0.0087,-0.0087,-0.0086,0,-0.049,-0.0465,-0.0458,-0.0435,-0.0415,-0.0406,-0.0368,-0.035,-0.0319,-0.0293,-0.0272,-0.0229,-0.02,-0.0192,-0.0167,-0.0168,-0.012,-0.0119,-0.0089,-0.0119,-0.0027,-0.002,-0.0092,-0.0091,-0.009,-0.0089,0,0,-0.0513,-0.0481,-0.0482,-0.0484,-0.0451,-0.0433,-0.0434,-0.0408,-0.0397,-0.0365,-0.0353,-0.0329,-0.0293,-0.0276,-0.0238,-0.0218,-0.018,-0.018,-0.0177,-0.0098,-0.0078,-0.0009,0.0008,-0.0182,-0.0183,-0.0183,0.0006,0,-0.0562,-0.0578,-0.0545,-0.0565,-0.0568,-0.0517,-0.0516,-0.0486,-0.0448,-0.0421,-0.0379,-0.0353,-0.0329,-0.0307,-0.029,-0.0204,-0.0169,-0.0228,-0.006,-0.0054,0.0009,0.0014,0.0034,0.0205,0.0014,0.0015,0.0016,0,-0.0612,-0.0606,-0.0637,-0.0613,-0.0608,-0.0615,-0.0578,-0.0568,-0.052,-0.049,-0.0462,-0.0414,-0.0369,-0.0352,-0.0232,-0.0268,-0.0188,-0.0123,-0.0115,-0.0028,0.0027,0.0197,0.0227,0.0357,0.0029,0.0028,0.0027,0,-0.0669,-0.0668,-0.0689,-0.0685,-0.0658,-0.0656,-0.0636,-0.0594,-0.0571,-0.0528,-0.05,-0.0446,-0.039,-0.0319,-0.0173,-0.0204,-0.0022,-0.0043,0.0101,0.011,0.0171,0.0185,0.034,0.0024,0.0023,0.0023,0.0022,0,-0.0729,-0.0741,-0.0716,-0.0726,-0.073,-0.0699,-0.0693,-0.0662,-0.0621,-0.0588,-0.0538,-0.0485,-0.0384,-0.0261,-0.0166,0.0021,-0.0006,0.0104,0.0152,0.0154,0.0163,0.0313,0.0353,0.003,0.0028,0.0027,0.0026,0,-0.0791,-0.0783,-0.0793,-0.077,-0.0762,-0.0762,-0.0722,-0.0715,-0.0667,-0.0621,-0.0606,-0.0491,-0.0326,-0.0189,-0.0018,0.0065,0.0305,0.0281,0.0311,0.0356,0.057,0.0604,0.0814,0.0896,0.0454,0.0457,0.0459,0,-0.0823,-0.0839,-0.0821,-0.0824,-0.0815,-0.0804,-0.0799,-0.075,-0.0732,-0.0609,-0.0589,-0.0419,-0.028,0.002,0.018,0.039,0.0457,0.0536,0.0451,0.0599,0.0672,0.0694,0.0748,0.0536,0.0538,0.0541,0.0542,0,-0.086,-0.0856,-0.0854,-0.0864,-0.0864,-0.0858,-0.084,-0.0822,-0.0748,-0.0654,-0.0497,-0.0367,-0.0103,0.0146,0.0404,0.0511,0.0632,0.0587,0.0716,0.073,0.0786,0.0883,0.0438,0.0562,0.056,0.0558,0.0557,0.0557,-0.0865,-0.0871,-0.0869,-0.0875,-0.0888,-0.089,-0.0843,-0.0792,-0.0693,-0.0491,-0.0389,-0.0087,0.0143,0.0497,0.0623,0.0866,0.0811,0.0926,0.0959,0.0972,0.1027,0.0652,0.083,0.083,0.083,0.0829,0.0829,0,-0.0833,-0.085,-0.0873,-0.087,-0.0881,-0.0886,-0.0844,-0.0751,-0.0573,-0.0365,-0.0123,0.0317,0.0593,0.0801,0.1064,0.1223,0.1235,0.1305,0.1324,0.1361,0.102,0.0997,0.1246,0.1246,0.1246,0.1246,0.1246,0.1246,-0.0808,-0.0811,-0.0827,-0.0836,-0.0845,-0.0785,-0.0731,-0.0568,-0.0387,0.0018,0.036,0.0598,0.0872,0.1274,0.1542,0.1566,0.1705,0.1693,0.1781,0.152,0.1485,0.1453,0.1442,0.1781,0.1781,0.2103,0.2106,0.2109]}],[{"header":{"parameterUnit":"m.s-1","parameterCategory":2,"la1":30.2991,"la2":30.254,"lo1":-89.0895,"lo2":-89.0444,"dy":0.0017,"dx":0.0017,"nx":28,"ny":28,"refTime":"2026-02-27T03:00:00:Z","depth":"2","parameterNumber":2,"parameterNumberName":"U-component_of_CURRENTS"},"data":[0,0,0,0,0,0,0,0,0,0,0,0,0,0,0,0,0,0,0,0,0,0,0,0,0,0,0,0,0,0,0,0,0,0,0,0,0,0,0,0,0,0,0,0,0,0,0,0,0,0,0,0,0,0,0,0,0,0,-0.1795,-0.1795,0,-0.1856,-0.1857,-0.1859,-0.1903,-0.1902,-0.1901,-0.19,-0.192,-0.1922,-0.1923,0,0,0,0,0,0,0,0,0,0,0,0,0,-0.1775,-0.1775,-0.1795,-0.1795,-0.1794,-0.1855,-0.1857,-0.1859,-0.1903,-0.1902,-0.1901,-0.19,-0.192,-0.1922,-0.1923,0,0,0,0,0,0,0,0,0,0,0,0,0,-0.1815,-0.1776,-0.1795,-0.1815,-0.1816,-0.1855,-0.1857,-0.186,-0.1903,-0.1902,-0.1901,-0.19,-0.192,-0.1921,-0.1923,-0.1956,0,0,-0.1929,-0.1929,0,0,0,0,0,0,0,0,-0.1813,-0.1818,-0.1812,-0.1813,-0.1815,-0.186,-0.1857,-0.1886,-0.1903,-0.1883,-0.19,-0.1899,-0.1889,-0.1894,-0.1925,-0.1957,-0.1958,-0.1929,-0.193,-0.1931,-0.1931,0,0,0,0,0,0,0,-0.181,-0.1815,-0.1831,-0.1812,-0.1813,-0.1839,-0.1845,-0.1864,-0.19,-0.1884,-0.1885,-0.1873,-0.1892,-0.1923,-0.1925,-0.1958,-0.1929,-0.193,-0.1932,-0.1932,-0.2041,-0.2043,0,0,0,0,0,0,-0.1777,-0.1813,-0.1829,-0.1832,-0.1798,-0.1839,-0.1846,-0.1856,-0.1901,-0.1903,-0.1874,-0.1874,-0.1921,-0.1923,-0.1926,-0.1956,-0.1931,-0.1932,-0.1933,-0.2039,-0.2041,-0.2043,0,0,0,0,0,0,-0.1777,-0.1779,-0.1826,-0.1813,-0.1819,-0.1839,-0.1852,-0.1858,-0.1892,-0.1891,-0.1895,-0.1899,-0.192,-0.1924,-0.195,-0.1957,-0.1933,-0.1935,-0.2037,-0.204,-0.2042,-0.2023,0,0,0,0,0,0,-0.1777,-0.1779,-0.1805,-0.1811,-0.1818,-0.1856,-0.1851,-0.1859,-0.188,-0.1883,-0.1914,-0.1915,-0.192,-0.1947,-0.1951,-0.1959,-0.1936,-0.2035,-0.2038,-0.2041,-0.2021,-0.2024,-0.2027,0,0,0,0,0,-0.1776,-0.1796,-0.1806,-0.1809,-0.1843,-0.1856,-0.1865,-0.1882,-0.1882,-0.1909,-0.1924,-0.1914,-0.1972,-0.195,-0.1955,-0.1963,-0.2033,-0.2037,-0.2041,-0.202,-0.2024,-0.2027,0,0,0,0,0,0,-0.1803,-0.1802,-0.1813,-0.1835,-0.1848,-0.1859,-0.1884,-0.1889,-0.1928,-0.1926,-0.1933,-0.1936,-0.1964,-0.1977,-0.1952,-0.201,-0.2003,-0.2008,-0.1985,-0.1989,-0.1992,-0.1965,-0.1938,0,0,0,0,0,-0.1817,-0.1827,-0.1836,-0.185,-0.1864,-0.188,-0.1894,-0.1896,-0.1911,-0.1929,-0.1956,-0.1978,-0.1989,-0.1997,-0.2023,-0.205,-0.2034,-0.2064,-0.2067,-0.2069,-0.2055,-0.2031,-0.2028,-0.2057,-0.2056,-0.2056,0,0,-0.1803,-0.1824,-0.1815,-0.1855,-0.1874,-0.1891,-0.189,-0.1903,-0.1914,-0.1922,-0.1976,-0.1992,-0.2001,-0.2032,-0.2046,-0.2038,-0.206,-0.2075,-0.2076,-0.206,-0.2034,-0.2031,-0.2028,-0.2059,-0.2059,-0.2058,0,0,-0.1796,-0.1832,-0.1843,-0.1867,-0.1893,-0.1903,-0.1904,-0.1935,-0.1958,-0.1993,-0.1998,-0.2009,-0.2064,-0.2056,-0.2055,-0.2093,-0.2079,-0.2124,-0.2107,-0.2085,-0.208,-0.2077,-0.2066,-0.2061,-0.212,-0.212,-0.212,0,-0.1795,-0.182,-0.1847,-0.1883,-0.1891,-0.1905,-0.1916,-0.1945,-0.198,-0.199,-0.2008,-0.2056,-0.2063,-0.2053,-0.207,-0.2092,-0.209,-0.2083,-0.2083,-0.2078,-0.2075,-0.2065,-0.206,-0.212,-0.212,-0.212,-0.212,0,-0.1799,-0.1829,-0.1841,-0.1886,-0.1907,-0.1914,-0.1939,-0.1977,-0.2001,-0.2012,-0.2038,-0.2056,-0.207,-0.2085,-0.2085,-0.2072,-0.2084,-0.2086,-0.2058,-0.2069,-0.206,-0.2055,-0.2119,-0.2119,-0.212,-0.212,0,0,-0.1757,-0.1826,-0.1832,-0.1858,-0.1906,-0.1916,-0.1948,-0.1969,-0.198,-0.2023,-0.2035,-0.2048,-0.2053,-0.2054,-0.206,-0.2042,-0.2017,-0.2058,-0.2057,-0.202,-0.1981,-0.1921,-0.191,-0.2021,-0.202,-0.2019,-0.1989,0,-0.1754,-0.1801,-0.1838,-0.1865,-0.1885,-0.1922,-0.195,-0.197,-0.1997,-0.2029,-0.2021,-0.204,-0.2041,-0.2049,-0.2027,-0.2029,-0.2002,-0.2026,-0.1999,-0.1998,-0.1919,-0.1901,-0.1765,-0.172,-0.1984,-0.1983,-0.1982,0,-0.1758,-0.1784,-0.1808,-0.186,-0.1875,-0.1895,-0.1933,-0.196,-0.199,-0.2013,-0.2012,-0.2025,-0.2007,-0.2013,-0.1976,-0.1998,-0.1982,-0.1976,-0.1974,-0.1914,-0.1927,-0.1752,-0.17,-0.1973,-0.1974,-0.1975,-0.1975,0,-0.1713,-0.1773,-0.1786,-0.1803,-0.1857,-0.1879,-0.191,-0.1946,-0.1972,-0.1997,-0.2013,-0.1998,-0.1998,-0.1972,-0.196,-0.1973,-0.1923,-0.1936,-0.1858,-0.1855,-0.1728,-0.1715,-0.1886,-0.1886,-0.1886,-0.1886,-0.1886,0,-0.1704,-0.1714,-0.1769,-0.1773,-0.1794,-0.1849,-0.1877,-0.1911,-0.1953,-0.1962,-0.1993,-0.1989,-0.1989,-0.197,-0.1952,-0.1884,-0.1908,-0.1837,-0.183,-0.1723,-0.171,-0.1923,-0.1928,-0.1885,-0.1885,-0.1885,-0.1886,0,-0.165,-0.1692,-0.1705,-0.1753,-0.1774,-0.1787,-0.1862,-0.1879,-0.1929,-0.1943,-0.1951,-0.1979,-0.1944,-0.1935,-0.1897,-0.1862,-0.1815,-0.1783,-0.1664,-0.1642,-0.1769,-0.1773,-0.1687,-0.1685,-0.1682,-0.168,-0.1679,0,-0.1611,-0.1617,-0.1668,-0.1679,-0.1702,-0.1742,-0.1767,-0.1846,-0.1865,-0.1921,-0.1914,-0.1911,-0.1863,-0.1798,-0.1736,-0.1669,-0.174,-0.1524,-0.1503,-0.1739,-0.1742,-0.1751,-0.1758,-0.1342,-0.1338,-0.1334,-0.1331,0,-0.1519,-0.1554,-0.1568,-0.159,-0.1621,-0.1653,-0.1699,-0.1714,-0.1791,-0.1806,-0.1795,-0.1766,-0.1707,-0.1567,-0.1505,-0.1456,-0.1525,-0.145,-0.1704,-0.1416,-0.1411,-0.1415,-0.1434,-0.1301,-0.1304,-0.1306,-0.1308,-0.1309,-0.1441,-0.1435,-0.1467,-0.1484,-0.1521,-0.1529,-0.1509,-0.1566,-0.1572,-0.1564,-0.1624,-0.1541,-0.1514,-0.1326,-0.125,-0.1201,-0.1306,-0.1258,-0.127,-0.1285,-0.1252,-0.1243,-0.1097,-0.1099,-0.11,-0.1102,-0.1103,0,-0.1316,-0.1339,-0.1354,-0.1366,-0.1353,-0.1413,-0.1427,-0.1381,-0.1337,-0.1377,-0.1349,-0.1192,-0.1097,-0.1081,-0.0945,-0.0918,-0.0917,-0.0889,-0.0891,-0.0921,-0.0948,-0.09,-0.0651,-0.065,-0.0648,-0.0647,0,0,-0.1258,-0.1229,-0.1243,-0.1183,-0.1191,-0.1119,-0.1094,-0.1055,-0.1048,-0.0991,-0.0969,-0.105,-0.1048,-0.0858,-0.0804,-0.0704,-0.0807,-0.0667,-0.1027,-0.106,-0.1085,-0.1156,-0.1115,0,0,0,0,0]},{"header":{"parameterUnit":"m.s-1","parameterCategory":2,"la1":30.2991,"la2":30.254,"lo1":-89.0895,"lo2":-89.0444,"dy":0.0017,"dx":0.0017,"nx":28,"ny":28,"refTime":"2026-02-27T03:00:00:Z","depth":"2","parameterNumber":3,"parameterNumberName":"V-component_of_CURRENTS"},"data":[0,0,0,0,0,0,0,0,0,0,0,0,0,0,0,0,0,0,0,0,0,0,0,0,0,0,0,0,0,0,0,0,0,0,0,0,0,0,0,0,0,0,0,0,0,0,0,0,0,0,0,0,0,0,0,0,0,0,-0.0347,-0.0346,0,-0.0272,-0.0271,-0.0269,-0.0199,-0.0199,-0.0199,-0.0198,-0.0052,-0.0049,-0.0045,0,0,0,0,0,0,0,0,0,0,0,0,0,-0.0321,-0.0322,-0.0347,-0.0346,-0.0346,-0.0272,-0.027,-0.0269,-0.0199,-0.0199,-0.0198,-0.0198,-0.0053,-0.0049,-0.0045,0,0,0,0,0,0,0,0,0,0,0,0,0,-0.0292,-0.0322,-0.0347,-0.0307,-0.0303,-0.0272,-0.027,-0.0268,-0.0199,-0.0199,-0.0198,-0.0198,-0.0055,-0.0049,-0.0044,-0.0018,0,0,-0.0027,-0.0025,0,0,0,0,0,0,0,0,-0.0293,-0.0292,-0.0313,-0.031,-0.0306,-0.025,-0.0208,-0.0183,-0.0199,-0.0232,-0.0198,-0.0198,-0.0116,-0.0106,-0.0084,-0.0011,-0.0005,-0.0027,-0.0024,-0.0021,-0.002,0,0,0,0,0,0,0,-0.0296,-0.0294,-0.031,-0.0313,-0.0309,-0.0257,-0.0252,-0.0202,-0.0171,-0.0229,-0.0225,-0.0228,-0.0113,-0.009,-0.008,-0.0003,-0.0027,-0.0022,-0.0019,-0.0017,0.0148,0.0149,0,0,0,0,0,0,-0.0325,-0.0297,-0.0313,-0.0309,-0.0306,-0.0258,-0.0253,-0.0263,-0.0173,-0.0161,-0.0228,-0.0225,-0.0099,-0.0087,-0.0075,-0.0031,-0.0021,-0.0016,-0.0013,0.0147,0.0148,0.015,0,0,0,0,0,0,-0.0324,-0.0327,-0.0316,-0.0305,-0.0301,-0.0261,-0.0271,-0.0262,-0.0241,-0.0174,-0.016,-0.0219,-0.0098,-0.0082,-0.0029,-0.0025,-0.0014,-0.0009,0.0146,0.0147,0.0149,0.0052,0,0,0,0,0,0,-0.0324,-0.0328,-0.0338,-0.0308,-0.0303,-0.0305,-0.0272,-0.0261,-0.0246,-0.0241,-0.0161,-0.0147,-0.0097,-0.0037,-0.0023,-0.0017,-0.0004,0.0144,0.0146,0.0148,0.0054,0.0051,0.0048,0,0,0,0,0,-0.0323,-0.0344,-0.0339,-0.0341,-0.0322,-0.0306,-0.0297,-0.0262,-0.0247,-0.024,-0.0183,-0.0149,-0.0013,-0.0033,-0.0016,-0.0008,0.0143,0.0146,0.0148,0.0056,0.0051,0.0048,0,0,0,0,0,0,-0.0341,-0.0339,-0.0332,-0.0352,-0.0335,-0.0297,-0.0288,-0.0269,-0.0219,-0.021,-0.0144,-0.0125,-0.0074,-0.0023,-0.0046,0.005,0.0074,0.008,-0.0001,-0.0005,-0.0008,-0.0021,0.0,0,0,0,0,0,-0.0353,-0.0366,-0.0352,-0.0368,-0.036,-0.0325,-0.0313,-0.0293,-0.0253,-0.023,-0.0174,-0.0106,-0.005,-0.0017,0.0043,0.0088,0.0126,0.0111,0.0107,0.0104,0.0108,0.0159,0.0159,0.0158,0.0158,0.0158,0,0,-0.0369,-0.0367,-0.0376,-0.0372,-0.035,-0.0342,-0.0315,-0.0303,-0.0288,-0.0222,-0.0172,-0.012,-0.004,0.0012,0.0041,0.0053,0.0123,0.0107,0.0103,0.011,0.0161,0.0161,0.0161,0.0159,0.0159,0.0159,0,0,-0.0397,-0.0399,-0.0411,-0.0397,-0.038,-0.0359,-0.0363,-0.0324,-0.0294,-0.0254,-0.0197,-0.0149,-0.0057,-0.0005,0.0034,0.005,0.0099,0.0079,0.0052,0.01,0.0099,0.01,0.0127,0.0131,0.0079,0.0079,0.0079,0,-0.0411,-0.0427,-0.0412,-0.041,-0.0401,-0.0372,-0.0373,-0.0341,-0.0289,-0.0262,-0.0246,-0.0118,-0.0065,-0.0001,0.0006,0.0039,0.0072,0.0049,0.0091,0.0092,0.0094,0.0123,0.0128,0.0075,0.0075,0.0076,0.0076,0,-0.0439,-0.0446,-0.0449,-0.044,-0.0428,-0.0425,-0.0391,-0.0364,-0.0332,-0.0297,-0.023,-0.0159,-0.0083,-0.006,-0.0023,0.0024,0.0044,0.0071,0.0087,0.0087,0.0119,0.0125,0.0069,0.007,0.0071,0.0072,0,0,-0.0482,-0.0472,-0.0471,-0.0468,-0.0442,-0.0438,-0.041,-0.0376,-0.0355,-0.0298,-0.0261,-0.0177,-0.0142,-0.0095,-0.0043,-0.0003,0.0021,0.0035,0.0039,0.0037,0.0117,0.014,0.015,0.0054,0.0055,0.0056,0.0124,0,-0.0503,-0.0515,-0.0499,-0.0503,-0.0504,-0.0464,-0.0443,-0.0407,-0.0362,-0.0317,-0.0246,-0.0191,-0.0153,-0.0123,-0.0079,0.0002,0.004,-0.0,0.014,0.0144,0.0145,0.016,0.0145,0.0207,0.0131,0.0132,0.0133,0,-0.0532,-0.0533,-0.0546,-0.0531,-0.0527,-0.0524,-0.0484,-0.0461,-0.0391,-0.0353,-0.0292,-0.0233,-0.0164,-0.0134,-0.001,-0.0036,0.0034,0.0091,0.0095,0.016,0.0182,0.0204,0.0223,0.0145,0.0144,0.0144,0.0143,0,-0.0572,-0.0567,-0.058,-0.0574,-0.0552,-0.0543,-0.0529,-0.0473,-0.0449,-0.0377,-0.035,-0.0258,-0.021,-0.0111,0.0005,0.0001,0.0139,0.015,0.0237,0.0238,0.0278,0.0281,0.0241,0.0241,0.0241,0.024,0.024,0,-0.0605,-0.0612,-0.0601,-0.0607,-0.0615,-0.0584,-0.0578,-0.0542,-0.0491,-0.0461,-0.0377,-0.0327,-0.0199,-0.0102,-0.0002,0.0138,0.0137,0.0238,0.0265,0.0243,0.0243,0.0238,0.0237,0.0243,0.0242,0.0242,0.0241,0,-0.0646,-0.0641,-0.0653,-0.0639,-0.0638,-0.0644,-0.0625,-0.0616,-0.0559,-0.0517,-0.0496,-0.0378,-0.0248,-0.0117,0.0046,0.013,0.026,0.0312,0.0267,0.0288,0.0323,0.0316,0.0406,0.0408,0.0409,0.041,0.0411,0,-0.0669,-0.068,-0.0685,-0.0701,-0.0697,-0.0701,-0.0704,-0.0659,-0.0642,-0.0538,-0.0519,-0.0386,-0.0275,-0.004,0.0127,0.0302,0.0305,0.039,0.0387,0.0326,0.0343,0.0335,0.0326,0.0392,0.0392,0.0393,0.0393,0,-0.07,-0.0702,-0.0712,-0.0746,-0.0763,-0.0775,-0.077,-0.0767,-0.0698,-0.064,-0.0532,-0.0432,-0.0201,-0.0002,0.0219,0.0321,0.0357,0.0408,0.0377,0.035,0.0318,0.0333,0.0324,0.0398,0.0398,0.0398,0.0397,0.0397,-0.0718,-0.0736,-0.0755,-0.0784,-0.0811,-0.0832,-0.0834,-0.0809,-0.0767,-0.066,-0.0558,-0.0386,-0.019,0.0127,0.0287,0.0428,0.0425,0.0466,0.0462,0.0458,0.0442,0.0414,0.0509,0.0509,0.0509,0.0509,0.0509,0,-0.0735,-0.0756,-0.079,-0.0825,-0.0859,-0.0861,-0.0862,-0.0839,-0.078,-0.066,-0.0534,-0.0301,-0.0068,0.0126,0.0359,0.0501,0.0482,0.0517,0.0469,0.0464,0.046,0.0442,0.051,0.051,0.051,0.051,0,0,-0.0746,-0.0779,-0.0794,-0.0851,-0.0878,-0.0899,-0.0895,-0.0842,-0.0752,-0.062,-0.0486,-0.0311,-0.0056,0.0107,0.0286,0.0406,0.0395,0.0413,0.0401,0.032,0.0313,0.0422,0.0389,0,0,0,0,0]}],[{"header":{"parameterUnit":"m.s-1","parameterCategory":2,"la1":30.2991,"la2":30.254,"lo1":-89.0895,"lo2":-89.0444,"dy":0.0017,"dx":0.0017,"nx":28,"ny":28,"refTime":"2026-02-27T03:00:00:Z","depth":"4","parameterNumber":2,"parameterNumberName":"U-component_of_CURRENTS"},"data":[0,0,0,0,0,0,0,0,0,0,0,0,0,0,0,0,0,0,0,0,0,0,0,0,0,0,0,0,0,0,0,0,0,0,0,0,0,0,0,0,0,0,0,0,0,0,0,0,0,0,0,0,0,0,0,0,0,0,-0.1151,-0.1151,0,-0.1191,-0.1192,-0.1192,-0.1221,-0.1221,-0.1221,-0.1221,-0.1262,-0.1263,-0.1264,0,0,0,0,0,0,0,0,0,0,0,0,0,-0.1112,-0.1112,-0.115,-0.1151,-0.1152,-0.1191,-0.1192,-0.1192,-0.122,-0.1221,-0.1221,-0.1221,-0.1262,-0.1263,-0.1264,0,0,0,0,0,0,0,0,0,0,0,0,0,-0.1138,-0.1112,-0.115,-0.117,-0.1172,-0.1191,-0.1192,-0.1193,-0.122,-0.1221,-0.1221,-0.1221,-0.1261,-0.1263,-0.1264,-0.1266,0,0,-0.1268,-0.1269,0,0,0,0,0,0,0,0,-0.1137,-0.114,-0.1167,-0.1169,-0.1171,-0.1201,-0.1193,-0.1217,-0.122,-0.1202,-0.1221,-0.1221,-0.1241,-0.1244,-0.1252,-0.1268,-0.127,-0.1268,-0.1269,-0.127,-0.127,0,0,0,0,0,0,0,-0.1135,-0.1138,-0.1167,-0.1167,-0.117,-0.1182,-0.1186,-0.1198,-0.122,-0.1204,-0.1206,-0.121,-0.1243,-0.125,-0.1253,-0.127,-0.1268,-0.1269,-0.127,-0.1271,-0.1356,-0.1358,0,0,0,0,0,0,-0.1128,-0.1136,-0.1165,-0.1168,-0.1154,-0.1183,-0.1187,-0.1191,-0.122,-0.1224,-0.121,-0.1211,-0.1248,-0.1251,-0.1254,-0.1307,-0.127,-0.1271,-0.1272,-0.1355,-0.1357,-0.1358,0,0,0,0,0,0,-0.1127,-0.1131,-0.1164,-0.1153,-0.1158,-0.1183,-0.1187,-0.1192,-0.1218,-0.1224,-0.1229,-0.1234,-0.1248,-0.1252,-0.1287,-0.1307,-0.1272,-0.1273,-0.1353,-0.1355,-0.1357,-0.1381,0,0,0,0,0,0,-0.1126,-0.113,-0.1139,-0.1153,-0.1158,-0.1185,-0.1187,-0.1193,-0.1219,-0.1222,-0.1246,-0.1249,-0.1249,-0.1285,-0.1288,-0.1308,-0.1274,-0.1351,-0.1354,-0.1357,-0.1378,-0.1384,-0.1388,0,0,0,0,0,-0.1125,-0.1132,-0.1139,-0.1144,-0.1168,-0.1186,-0.119,-0.1209,-0.122,-0.1234,-0.1256,-0.1249,-0.1305,-0.1287,-0.1291,-0.1311,-0.135,-0.1353,-0.1356,-0.1376,-0.1383,-0.1388,0,0,0,0,0,0,-0.1118,-0.1136,-0.1144,-0.1157,-0.1175,-0.1191,-0.1209,-0.122,-0.1249,-0.126,-0.1266,-0.1271,-0.131,-0.1311,-0.1291,-0.1346,-0.1327,-0.1331,-0.1341,-0.1347,-0.1352,-0.1357,-0.1275,0,0,0,0,0,-0.112,-0.1132,-0.1151,-0.1161,-0.1176,-0.1197,-0.1211,-0.1224,-0.1246,-0.126,-0.1279,-0.1302,-0.1323,-0.1336,-0.1355,-0.1381,-0.1376,-0.1399,-0.1404,-0.1408,-0.1417,-0.1426,-0.1432,-0.1369,-0.1369,-0.1369,0,0,-0.112,-0.1132,-0.1139,-0.1162,-0.1182,-0.1208,-0.1207,-0.1235,-0.1258,-0.1259,-0.1307,-0.1322,-0.1336,-0.1369,-0.1386,-0.1374,-0.1424,-0.1412,-0.1416,-0.1422,-0.143,-0.1436,-0.1441,-0.1371,-0.1371,-0.137,0,0,-0.1125,-0.1141,-0.1157,-0.1178,-0.121,-0.1224,-0.1237,-0.1269,-0.1288,-0.1326,-0.1337,-0.1366,-0.14,-0.1412,-0.1421,-0.1466,-0.1452,-0.1477,-0.1502,-0.1511,-0.1515,-0.152,-0.1514,-0.1517,-0.1476,-0.1476,-0.1476,0,-0.1126,-0.1148,-0.1165,-0.1191,-0.1214,-0.1236,-0.1265,-0.1287,-0.1325,-0.1346,-0.1347,-0.141,-0.1419,-0.1455,-0.1473,-0.1476,-0.1476,-0.1473,-0.1515,-0.1519,-0.1523,-0.1516,-0.152,-0.1477,-0.1477,-0.1477,-0.1477,0,-0.1143,-0.1171,-0.1186,-0.1227,-0.1254,-0.1281,-0.1314,-0.1346,-0.1372,-0.1393,-0.1443,-0.1457,-0.1492,-0.1499,-0.15,-0.1539,-0.1528,-0.152,-0.1494,-0.1531,-0.1521,-0.1525,-0.1479,-0.1479,-0.1478,-0.1478,0,0,-0.1114,-0.1185,-0.1191,-0.1224,-0.1277,-0.13,-0.1346,-0.139,-0.1426,-0.1459,-0.1501,-0.1535,-0.1546,-0.1559,-0.1563,-0.1571,-0.1593,-0.1563,-0.1562,-0.1547,-0.1608,-0.1487,-0.1479,-0.1593,-0.1594,-0.1594,-0.1587,0,-0.1124,-0.118,-0.1212,-0.1271,-0.1307,-0.1348,-0.1388,-0.1432,-0.1469,-0.1515,-0.1533,-0.1575,-0.1566,-0.1586,-0.1596,-0.1599,-0.1605,-0.1595,-0.1584,-0.1584,-0.1464,-0.148,-0.1597,-0.1589,-0.159,-0.159,-0.159,0,-0.1124,-0.1167,-0.1226,-0.1304,-0.1324,-0.1365,-0.1438,-0.1475,-0.1537,-0.1565,-0.1606,-0.1624,-0.1653,-0.1636,-0.165,-0.1647,-0.1636,-0.1628,-0.1627,-0.1509,-0.1469,-0.1549,-0.1596,-0.1595,-0.1595,-0.1595,-0.1594,0,-0.1089,-0.1172,-0.1222,-0.1249,-0.1339,-0.1379,-0.1427,-0.1496,-0.1531,-0.16,-0.163,-0.1668,-0.1683,-0.1686,-0.1667,-0.1668,-0.1668,-0.1661,-0.1541,-0.1532,-0.1632,-0.1628,-0.1671,-0.1671,-0.1671,-0.1671,-0.1671,0,-0.1068,-0.1113,-0.1217,-0.1246,-0.1312,-0.1378,-0.1446,-0.1495,-0.1565,-0.1599,-0.1653,-0.1669,-0.1699,-0.1698,-0.1683,-0.1609,-0.1676,-0.1545,-0.1522,-0.1642,-0.1639,-0.1633,-0.1629,-0.167,-0.167,-0.1671,-0.1671,0,-0.1012,-0.108,-0.1148,-0.1259,-0.1297,-0.1344,-0.145,-0.1488,-0.1562,-0.1607,-0.1628,-0.1678,-0.1661,-0.1667,-0.166,-0.1605,-0.1563,-0.1523,-0.1644,-0.1629,-0.1421,-0.1418,-0.1388,-0.1384,-0.138,-0.1377,-0.1375,0,-0.0983,-0.1015,-0.1145,-0.1186,-0.1241,-0.1325,-0.1373,-0.1471,-0.1504,-0.1588,-0.159,-0.1613,-0.1626,-0.1509,-0.1536,-0.1484,-0.1466,-0.1443,-0.1439,-0.1411,-0.1392,-0.1396,-0.1398,-0.1369,-0.1368,-0.1367,-0.1366,0,-0.0927,-0.0985,-0.104,-0.1128,-0.1196,-0.1258,-0.1335,-0.1349,-0.1441,-0.1531,-0.1499,-0.1479,-0.1452,-0.1421,-0.1385,-0.1355,-0.1459,-0.1405,-0.1413,-0.1408,-0.1387,-0.1373,-0.138,-0.1353,-0.1355,-0.1356,-0.1357,0,-0.0878,-0.0906,-0.0983,-0.1049,-0.1128,-0.1154,-0.1214,-0.1243,-0.1284,-0.1379,-0.1363,-0.1382,-0.1432,-0.1353,-0.1325,-0.1276,-0.1257,-0.1223,-0.124,-0.1254,-0.1212,-0.1165,-0.1041,0,0,0,0,0,-0.0814,-0.0838,-0.0897,-0.0959,-0.103,-0.1067,-0.1165,-0.1222,-0.132,-0.1258,-0.1304,-0.127,-0.1216,-0.1231,-0.1147,-0.1263,-0.1264,-0.1163,-0.1236,-0.1283,-0.1298,-0.1258,0,0,0,0,0,0,-0.0771,-0.0821,-0.086,-0.0862,-0.0878,-0.0935,-0.0986,-0.1057,-0.1031,-0.1133,-0.1102,-0.1183,-0.1142,-0.1223,-0.1111,-0.1116,-0.1135,-0.1188,-0.1184,-0.1275,-0.1288,-0.13,-0.1265,0,0,0,0,0]},{"header":{"parameterUnit":"m.s-1","parameterCategory":2,"la1":30.2991,"la2":30.254,"lo1":-89.0895,"lo2":-89.0444,"dy":0.0017,"dx":0.0017,"nx":28,"ny":28,"refTime":"2026-02-27T03:00:00:Z","depth":"4","parameterNumber":3,"parameterNumberName":"V-component_of_CURRENTS"},"data":[0,0,0,0,0,0,0,0,0,0,0,0,0,0,0,0,0,0,0,0,0,0,0,0,0,0,0,0,0,0,0,0,0,0,0,0,0,0,0,0,0,0,0,0,0,0,0,0,0,0,0,0,0,0,0,0,0,0,-0.0283,-0.0283,0,-0.025,-0.0249,-0.0249,-0.0222,-0.0222,-0.0222,-0.0221,-0.0154,-0.0152,-0.0151,0,0,0,0,0,0,0,0,0,0,0,0,0,-0.0242,-0.0244,-0.0283,-0.0283,-0.0282,-0.025,-0.0249,-0.0249,-0.0222,-0.0222,-0.0221,-0.0221,-0.0154,-0.0153,-0.0151,0,0,0,0,0,0,0,0,0,0,0,0,0,-0.0239,-0.0244,-0.0283,-0.0266,-0.0264,-0.025,-0.0249,-0.0249,-0.0222,-0.0222,-0.0221,-0.0221,-0.0155,-0.0153,-0.015,-0.0141,0,0,-0.0143,-0.0142,0,0,0,0,0,0,0,0,-0.0239,-0.024,-0.0269,-0.0267,-0.0265,-0.0241,-0.021,-0.0211,-0.0222,-0.0237,-0.0221,-0.0221,-0.0181,-0.0176,-0.0169,-0.0137,-0.0135,-0.0143,-0.0141,-0.014,-0.0139,0,0,0,0,0,0,0,-0.024,-0.0241,-0.0269,-0.0269,-0.0266,-0.0232,-0.0232,-0.021,-0.0209,-0.0235,-0.0234,-0.0232,-0.0179,-0.0172,-0.0168,-0.0134,-0.0143,-0.0141,-0.0139,-0.0138,-0.0091,-0.0091,0,0,0,0,0,0,-0.0251,-0.0242,-0.027,-0.0268,-0.0252,-0.0234,-0.0233,-0.0248,-0.021,-0.0205,-0.0232,-0.0231,-0.0176,-0.017,-0.0165,-0.0152,-0.014,-0.0138,-0.0136,-0.009,-0.0091,-0.0091,0,0,0,0,0,0,-0.025,-0.0254,-0.0271,-0.0254,-0.0254,-0.0235,-0.0251,-0.0247,-0.0243,-0.0208,-0.0202,-0.0233,-0.0176,-0.0168,-0.0151,-0.0149,-0.0137,-0.0134,-0.009,-0.009,-0.0091,-0.0126,0,0,0,0,0,0,-0.025,-0.0255,-0.0269,-0.0255,-0.0255,-0.0271,-0.0252,-0.0247,-0.0243,-0.0241,-0.0206,-0.02,-0.0175,-0.0155,-0.0149,-0.0146,-0.0133,-0.009,-0.009,-0.0091,-0.0124,-0.0127,-0.0129,0,0,0,0,0,-0.0249,-0.0269,-0.027,-0.0273,-0.0276,-0.0272,-0.0269,-0.0253,-0.0244,-0.0247,-0.0223,-0.0201,-0.0153,-0.0154,-0.0146,-0.0142,-0.009,-0.009,-0.0091,-0.0123,-0.0126,-0.0129,0,0,0,0,0,0,-0.026,-0.0268,-0.0269,-0.0292,-0.0287,-0.0268,-0.0269,-0.0258,-0.0242,-0.024,-0.0204,-0.0196,-0.0179,-0.0159,-0.0161,-0.013,-0.0117,-0.0116,-0.0144,-0.0147,-0.015,-0.0144,-0.0131,0,0,0,0,0,-0.0271,-0.0289,-0.0286,-0.0305,-0.0304,-0.0288,-0.0284,-0.0277,-0.026,-0.0253,-0.0229,-0.0201,-0.0175,-0.0161,-0.0138,-0.0123,-0.0088,-0.0116,-0.0119,-0.0121,-0.0112,-0.0051,-0.0047,-0.0092,-0.0092,-0.0092,0,0,-0.0283,-0.0288,-0.0299,-0.0308,-0.0301,-0.0303,-0.0285,-0.0286,-0.0283,-0.0248,-0.0236,-0.0211,-0.0174,-0.0156,-0.0146,-0.0139,-0.0095,-0.0122,-0.0124,-0.0113,-0.0051,-0.0046,-0.0042,-0.0093,-0.0093,-0.0093,0,0,-0.0304,-0.0318,-0.0334,-0.0331,-0.0329,-0.032,-0.0323,-0.0311,-0.0301,-0.0292,-0.026,-0.0234,-0.0205,-0.017,-0.0149,-0.0153,-0.0112,-0.0151,-0.0156,-0.0098,-0.0093,-0.0089,-0.006,-0.0053,-0.0151,-0.0151,-0.0151,0,-0.0316,-0.0337,-0.0337,-0.0343,-0.0341,-0.0329,-0.0336,-0.0326,-0.0309,-0.0295,-0.0296,-0.0231,-0.0207,-0.016,-0.0165,-0.0157,-0.0126,-0.0148,-0.01,-0.0095,-0.0089,-0.0061,-0.0052,-0.0153,-0.0153,-0.0152,-0.0152,0,-0.034,-0.0356,-0.0362,-0.037,-0.0368,-0.0374,-0.0361,-0.0355,-0.0345,-0.0327,-0.029,-0.0254,-0.021,-0.0203,-0.0186,-0.0135,-0.0129,-0.0111,-0.0091,-0.0087,-0.0058,-0.0048,-0.0155,-0.0155,-0.0154,-0.0154,0,0,-0.0369,-0.0379,-0.0382,-0.0387,-0.0383,-0.0385,-0.0377,-0.0361,-0.0347,-0.0327,-0.0298,-0.0255,-0.0229,-0.0203,-0.0173,-0.0127,-0.0077,-0.0108,-0.0104,-0.0078,0.0035,0.0014,0.0023,-0.0047,-0.0045,-0.0044,0.0032,0,-0.0386,-0.0408,-0.0404,-0.0419,-0.0427,-0.0409,-0.0401,-0.0384,-0.0362,-0.0333,-0.0282,-0.0249,-0.0231,-0.021,-0.016,-0.0097,-0.0049,-0.0101,0.0026,0.003,0.0013,0.0035,-0.0037,0.004,0.0042,0.0044,0.0045,0,-0.0407,-0.0418,-0.044,-0.0441,-0.0442,-0.0447,-0.0426,-0.0417,-0.0369,-0.0348,-0.0297,-0.0257,-0.0192,-0.0178,-0.0057,-0.0091,-0.0028,0.002,0.0025,0.003,0.0028,0.0041,0.0064,0.0062,0.0061,0.0059,0.0058,0,-0.0427,-0.0441,-0.0461,-0.0463,-0.0462,-0.0463,-0.0459,-0.0423,-0.0411,-0.0353,-0.0332,-0.0248,-0.021,-0.0113,-0.0027,-0.0033,0.0105,0.0111,0.0155,0.0153,0.0164,0.0158,0.0215,0.0215,0.0215,0.0215,0.0214,0,-0.0444,-0.0459,-0.0475,-0.0486,-0.0503,-0.049,-0.0492,-0.047,-0.0432,-0.041,-0.0343,-0.0299,-0.0188,-0.0102,-0.0018,0.009,0.0117,0.0163,0.0181,0.0142,0.0134,0.0169,0.0163,0.0217,0.0217,0.0216,0.0216,0,-0.0461,-0.0473,-0.0498,-0.051,-0.0518,-0.053,-0.0532,-0.0526,-0.0484,-0.0449,-0.0431,-0.0333,-0.0221,-0.0112,0.0039,0.0093,0.0203,0.0241,0.0173,0.0184,0.0207,0.0198,0.0296,0.0297,0.0297,0.0297,0.0297,0,-0.0471,-0.0487,-0.0524,-0.0548,-0.0558,-0.0575,-0.0587,-0.056,-0.0547,-0.0463,-0.0445,-0.0334,-0.0259,-0.0065,0.0045,0.0202,0.0226,0.0271,0.0258,0.0213,0.0221,0.0211,0.0202,0.0297,0.0297,0.0297,0.0297,0,-0.0485,-0.0503,-0.0524,-0.0577,-0.0607,-0.0629,-0.0638,-0.063,-0.0581,-0.0546,-0.0437,-0.0326,-0.0203,-0.0063,0.0055,0.017,0.0232,0.0273,0.0273,0.0261,0.0215,0.022,0.0211,0.0297,0.0297,0.0297,0.0297,0,-0.0494,-0.0517,-0.0555,-0.0596,-0.0642,-0.0665,-0.0666,-0.0634,-0.0609,-0.0509,-0.0474,-0.0324,-0.0237,-0.0078,0.0036,0.0137,0.0163,0.0189,0.0195,0.0196,0.0138,0.0063,0.0126,0,0,0,0,0,-0.0496,-0.0526,-0.057,-0.0616,-0.0664,-0.0685,-0.0691,-0.0679,-0.0631,-0.0558,-0.051,-0.0386,-0.0198,-0.0113,-0.0013,0.002,0.0162,0.0138,0.0189,0.03,0.0299,0.0247,0,0,0,0,0,0,-0.05,-0.0544,-0.0567,-0.0625,-0.0659,-0.0701,-0.0706,-0.0674,-0.0623,-0.0558,-0.0456,-0.0376,-0.0199,-0.0256,-0.0015,0.0017,0.006,0.0233,0.0235,0.03,0.0299,0.0299,0.0246,0,0,0,0,0]}]]